Pascagoula, MS

12:59 PM CDT on March 30, 2017 (GMT -0500)
Lott International

Weather History for KPQL - September, 2012

Change the Weather History Date:

Tuesday, September 4, 2012

  Actual Average Record
Temperature  
Mean Temperature 79 °F -  
Max Temperature 89 °F 89 °F 98 °F (2000)
Min Temperature 71 °F 73 °F 58 °F (1952)
Cooling Degree Days 14    
Growing Degree Days 29 (Base 50)    
Moisture  
Dew Point 74 °F    
Average Humidity 83    
Maximum Humidity 94    
Minimum Humidity 63    
Precipitation  
Precipitation 0.56 in - - ()
Sea Level Pressure  
Sea Level Pressure 29.93 in    
Wind  
Wind Speed 5 mph (WSW)    
Max Wind Speed 15 mph    
Max Gust Speed 29 mph    
Visibility 9 miles    
Events Rain , Thunderstorm    
Averages and records for this station are not official NWS values.
T = Trace of Precipitation, MM = Missing Value Source: NWS Daily Summary

Daily Weather History Graph

Daily Weather History Graph

Search for Another Location

Airport or City:

Trip Planner

Search our weather history database for the weather conditions in past years. The results will help you decide how hot, cold, wet, or windy it might be!

Date:

Astronomy

Sep. 04, 2012 Rise Set
Actual Time 6:32 AM CDT 7:12 PM CDT
Civil Twilight 6:08 AM CDT 7:37 PM CDT
Nautical Twilight 5:39 AM CDT 8:05 PM CDT
Astronomical Twilight 5:10 AM CDT 8:34 PM CDT
Moon 9:29 PM CDT (9/4) 10:17 AM CDT (9/4)
Length of Visible Light 13h 28m
Length of Day
12h 39m
Waning Gibbous, 83% of the Moon is Illuminated
Sep 4
Waning Gibbous
Sep 8
Last Quarter
Sep 15
New
Sep 22
First Quarter
Sep 29
Full

Hourly Weather History & Observations

Time (CDT) Temp. Heat Index Dew Point Humidity Pressure Visibility Wind Dir Wind Speed Gust Speed Precip Events Conditions
12:28 AM 82.4 °F 92.4 °F 78.8 °F 89% 29.95 in 10.0 mi SSW 5.8 mph - N/A   Mostly Cloudy
12:53 AM 82.9 °F 93.8 °F 79.0 °F 88% 29.96 in 10.0 mi SSW 5.8 mph - N/A   Overcast
1:53 AM 82.9 °F 93.8 °F 79.0 °F 88% 29.95 in 10.0 mi Variable 4.6 mph - N/A   Mostly Cloudy
2:19 AM 82.4 °F 92.4 °F 78.8 °F 89% 29.94 in 10.0 mi SW 4.6 mph - N/A   Scattered Clouds
2:53 AM 82.0 °F 90.2 °F 77.0 °F 85% 29.96 in 10.0 mi WSW 3.5 mph - N/A   Clear
3:53 AM 81.0 °F 87.9 °F 77.0 °F 88% 29.93 in 10.0 mi SW 5.8 mph - N/A   Clear
4:53 AM 81.0 °F 87.3 °F 75.9 °F 85% 29.94 in 10.0 mi Variable 4.6 mph - N/A   Clear
5:53 AM 80.1 °F 85.4 °F 75.9 °F 87% 29.96 in 10.0 mi Calm Calm - N/A   Clear
6:53 AM 80.1 °F 85.4 °F 75.9 °F 87% 29.97 in 10.0 mi West 5.8 mph - N/A   Clear
7:53 AM 81.0 °F 87.3 °F 75.9 °F 85% 29.97 in 10.0 mi West 5.8 mph - N/A   Clear
8:31 AM 80.6 °F 86.2 °F 75.2 °F 84% 29.97 in 10.0 mi West 5.8 mph - N/A   Mostly Cloudy
8:53 AM 82.0 °F 89.4 °F 75.9 °F 82% 29.97 in 10.0 mi West 9.2 mph - N/A   Mostly Cloudy
9:07 AM 82.4 °F 89.5 °F 75.2 °F 79% 29.96 in 10.0 mi West 8.1 mph - N/A   Scattered Clouds
9:53 AM 82.0 °F 87.9 °F 73.9 °F 76% 29.97 in 10.0 mi WSW 6.9 mph - N/A   Partly Cloudy
10:53 AM 86.0 °F 93.8 °F 73.9 °F 67% 29.98 in 10.0 mi West 6.9 mph - N/A   Partly Cloudy
11:53 AM 87.1 °F 94.5 °F 73.0 °F 63% 29.96 in 10.0 mi West 5.8 mph - N/A   Clear
12:53 PM 87.1 °F 95.4 °F 73.9 °F 65% 29.94 in 10.0 mi SW 6.9 mph - N/A   Clear
1:53 PM 87.1 °F 95.4 °F 73.9 °F 65% 29.93 in 10.0 mi North - - N/A   Clear
2:53 PM 86.0 °F 93.8 °F 73.9 °F 67% 29.91 in 10.0 mi SW 6.9 mph - N/A   Clear
3:53 PM 86.0 °F 93.8 °F 73.9 °F 67% 29.88 in 10.0 mi SW 8.1 mph - N/A   Clear
5:53 PM 84.9 °F 91.4 °F 73.0 °F 67% 29.88 in 10.0 mi Calm Calm - N/A   Scattered Clouds
6:42 PM 84.2 °F 90.9 °F 73.4 °F 70% 29.89 in 10.0 mi Calm Calm - N/A Thunderstorm Mostly Cloudy
6:53 PM 82.9 °F 88.8 °F 73.0 °F 72% 29.92 in 10.0 mi NNW 15.0 mph 24.2 mph N/A Thunderstorm Overcast
7:04 PM 75.2 °F - 69.8 °F 83% 29.92 in 1.5 mi West 11.5 mph 28.8 mph 0.24 in Rain , Thunderstorm Heavy Thunderstorms and Rain
7:13 PM 73.4 °F - 69.8 °F 88% 29.90 in 1.0 mi West 10.4 mph - 0.42 in Rain , Thunderstorm Heavy Thunderstorms and Rain
7:24 PM 73.4 °F - 69.8 °F 88% 29.88 in 2.0 mi WSW 10.4 mph - 0.54 in Rain , Thunderstorm Heavy Thunderstorms and Rain
7:32 PM 71.6 °F - 69.8 °F 94% 29.87 in 9.0 mi WSW 6.9 mph - 0.55 in Rain , Thunderstorm Light Thunderstorms and Rain
7:53 PM 73.0 °F - 70.0 °F 90% 29.88 in 10.0 mi SW 4.6 mph - 0.55 in Thunderstorm Partly Cloudy
8:01 PM 73.4 °F - 69.8 °F 88% 29.87 in 10.0 mi SW 3.5 mph - N/A   Partly Cloudy
8:31 PM 73.4 °F - 69.8 °F 88% 29.89 in 10.0 mi Calm Calm - N/A Thunderstorm Clear
8:46 PM 73.4 °F - 71.6 °F 94% 29.90 in 10.0 mi Calm Calm - N/A   Clear
8:53 PM 73.9 °F - 71.1 °F 91% 29.91 in 10.0 mi WSW 3.5 mph - 0.00 in Rain Light Rain
9:34 PM 73.4 °F - 71.6 °F 94% 29.91 in 10.0 mi Calm Calm - 0.01 in Thunderstorm Mostly Cloudy
9:53 PM 73.9 °F - 72.0 °F 93% 29.91 in 10.0 mi SSW 3.5 mph - 0.01 in Thunderstorm Mostly Cloudy
10:03 PM 73.4 °F - 71.6 °F 94% 29.92 in 10.0 mi Calm Calm - N/A   Scattered Clouds
10:53 PM 73.9 °F - 72.0 °F 93% 29.90 in 10.0 mi Calm Calm - 0.00 in   Partly Cloudy
11:53 PM 73.9 °F - 72.0 °F 93% 29.88 in 10.0 mi WNW 3.5 mph - N/A   Clear